Weather in Russkaya Techa

Russia / Chelyabinsk Oblast     55°45′30″N   62°11′35″E
В апреле 2022 года жителям России запретили посещать сайт meteo.paraplan.net по решению Генеральной прокуратуры. Аудитория сайта уменьшилась в 10 раз. Владельцы сайта не видят смысла в поддержке погодного сервера в таких условиях. Сайт будет закрыт в октябре.
temp.,
°C
wind,
m/s
gust,
m/s
humid.,
%
clouds,
%
prec.,
mm/h
press.,
hPa
HPBL,
m
3 october, mon
mon323:00+6s61457100 0.0 1028336
02:00+6s61358100 0.0 1027348
05:00+6s61456100 0.0 1027348
08:00+5s61458100 0.0 1028343
11:00+7ssw6135398 0.0 1028402
14:00+11ssw71145100 0.0 1028580
17:00+12s5115044 0.0 1027354
20:00+8ssw41160100 0.0 1028185
4 october, tue
tue423:00+8ssw4106257 0.0 1029175
02:00+8ssw4964100 0.0 1029201
05:00+8sw3666100 0.0 1030126
08:00+8sw3469100 0.0 103294
11:00+12sw3361100 0.0 1032214
14:00+14sw3352100 0.0 1032486
17:00+14ssw355895 0.0 1032121
20:00+10ssw46605 0.0 103388
5 october, wed
wed523:00+8ssw36575 0.0 103392
02:00+7ssw375865 0.0 1034110
05:00+6ssw41055100 0.0 1033164
08:00+5ssw41155100 0.0 1034212
11:00+10sw51044100 0.0 1033393
14:00+13sw5836100 0.0 1031661
17:00+11ssw3745100 0.0 1030163
20:00+9sw3647100 0.0 1031106
6 october, thu
thu623:00+8sw3448100 0.0 103074
02:00+8ssw3653100 0.0 1029105
05:00+8ssw3765100 0.0 1028145
08:00+7s4958100 0.0 1027184
11:00+11s51242100 0.0 1025424
14:00+13s61134100 0.0 1023619
17:00+12s4839100 0.0 1021191
20:00+9s41039100 0.0 1021148
7 october, fri
fri723:00+9s41139100 0.0 1019217
02:00+9ssw3845100 0.0 1017176
05:00+9s3646100 0.0 1015126
08:00+8s3653100 0.0 1013102
11:00+9ssw5962100 0.1 1012408
14:00+9ssw368499 0.6 1011256
17:00+9w3877100 0.9 1010456
20:00+6wsw388675 0.0 1011178